Leadville, CO

3:37 AM MST on November 21, 2019 (GMT -0700)
Lake County

Weather History for KLXV - September, 2019

Change the Weather History Date:

Friday, September 13, 2019

  Actual Average Record
Temperature  
Mean Temperature 47 °F -  
Max Temperature 68 °F 62 °F 76 °F (1990)
Min Temperature 26 °F 32 °F 22 °F (1985)
Degree Days  
Heating Degree Days 18 18  
Month to date heating degree days 161 217  
Since 1 July heating degree days 754 939  
Cooling Degree Days 0 0  
Month to date cooling degree days 0 0  
Year to date cooling degree days 0 0  
Moisture  
Dew Point 20 °F    
Average Humidity 48    
Maximum Humidity 81    
Minimum Humidity 14    
Precipitation  
Precipitation 0.00 in 0.03 in 0.61 in (2013)
Month to date precipitation 0.31 0.54  
Year to date precipitation 12.85 9.49  
Sea Level Pressure  
Sea Level Pressure 30.24 in    
Wind  
Wind Speed 6 mph (North)    
Max Wind Speed 18 mph    
Max Gust Speed 30 mph    
Visibility 8 miles    
Events      
T = Trace of Precipitation, MM = Missing Value Source: NWS Daily Summary

Daily Weather History Graph

Daily Weather History Graph

Search for Another Location

Airport or City:

Astronomy

Sep. 13, 2019 Rise Set
Actual Time 6:44 AM MDT 7:17 PM MDT
Civil Twilight 6:17 AM MDT 7:44 PM MDT
Nautical Twilight 5:45 AM MDT 8:15 PM MDT
Astronomical Twilight 5:13 AM MDT 8:48 PM MDT
Moon 7:31 PM MDT (9/13) 6:04 AM MDT (9/13)
Length of Visible Light 13h 26m
Length of Day
12h 32m
Full, 100% of the Moon is Illuminated
Sep 13
Full
Sep 13
Full
Sep 21
Last Quarter
Sep 28
New
Oct 5
First Quarter

Hourly Weather History & Observations

Time (MDT) Temp. Windchill Dew Point Humidity Pressure Visibility Wind Dir Wind Speed Gust Speed Precip Events Conditions
12:53 AM 30.0 °F - 18.0 °F 61% 30.25 in 10.0 mi Calm Calm - N/A   Clear
1:53 AM 30.9 °F - 19.0 °F 61% 30.23 in 10.0 mi Calm Calm - N/A   Clear
2:53 AM 28.0 °F 22.8 °F 19.0 °F 69% 30.22 in 10.0 mi NE 4.6 mph - N/A   Clear
3:53 AM 33.1 °F 28.7 °F 21.0 °F 61% 30.17 in 10.0 mi ENE 4.6 mph - N/A   Clear
4:53 AM 32.0 °F 26.4 °F 21.9 °F 66% 30.18 in 10.0 mi ENE 5.8 mph - N/A   Clear
5:53 AM 32.0 °F 27.5 °F 23.0 °F 69% 30.18 in 10.0 mi ENE 4.6 mph - N/A   Clear
6:53 AM 27.0 °F - 21.0 °F 78% 30.25 in 10.0 mi Calm Calm - N/A   Clear
7:53 AM 30.9 °F - 24.1 °F 76% 30.28 in 5.0 mi Calm Calm - N/A   Haze
8:53 AM 45.0 °F - 27.0 °F 49% 30.22 in 10.0 mi Calm Calm - N/A   Clear
9:36 AM 46.9 °F - 28.0 °F 48% 30.55 in 2.5 mi West 3.5 mph - N/A   Haze
9:49 AM 48.2 °F - 28.4 °F 46% 30.55 in 5.0 mi Variable 3.5 mph - N/A   Haze
9:53 AM 48.9 °F - 28.0 °F 44% 30.21 in 5.0 mi Calm Calm - N/A   Haze
10:53 AM 57.0 °F - 21.0 °F 25% 30.18 in 8.0 mi Variable 5.8 mph - N/A   Clear
11:11 AM 57.0 °F - 19.9 °F 24% 30.53 in 5.0 mi WNW 3.5 mph - N/A   Haze
11:53 AM 62.1 °F - 16.0 °F 17% 30.12 in 10.0 mi West 9.2 mph 20.7 mph N/A   Clear
12:05 PM 63.0 °F - 16.0 °F 16% 30.51 in 4.0 mi NNW 12.7 mph 21.9 mph N/A   Haze
12:53 PM 64.0 °F - 18.0 °F 17% 30.12 in 10.0 mi North 9.2 mph 20.7 mph N/A   Clear
1:53 PM 66.0 °F - 18.0 °F 16% 30.07 in 10.0 mi NNW 12.7 mph 26.5 mph N/A   Clear
2:27 PM 66.0 °F - 14.0 °F 13% 30.49 in 1.5 mi NNW 10.4 mph 26.5 mph N/A   Haze
2:31 PM 66.9 °F - 16.0 °F 14% 30.49 in 4.0 mi NW 12.7 mph 26.5 mph N/A   Haze
2:53 PM 66.0 °F - 16.0 °F 15% 30.10 in 9.0 mi North 10.4 mph 24.2 mph N/A   Clear
3:53 PM 66.9 °F - 15.1 °F 14% 30.05 in 10.0 mi North 8.1 mph 21.9 mph N/A   Clear
4:53 PM 66.0 °F - 16.0 °F 15% 30.07 in 10.0 mi NW 11.5 mph 20.7 mph N/A   Clear
5:53 PM 63.0 °F - 16.0 °F 16% 30.09 in 10.0 mi NW 12.7 mph 20.7 mph N/A   Clear
6:53 PM 60.1 °F - 17.1 °F 19% 30.16 in 10.0 mi NW 10.4 mph - N/A   Clear
7:53 PM 52.0 °F - 18.0 °F 26% 30.20 in 10.0 mi NNE 8.1 mph - N/A   Clear
8:53 PM 44.1 °F 39.0 °F 18.0 °F 35% 30.17 in 10.0 mi ENE 9.2 mph - N/A   Clear
9:53 PM 42.1 °F - 18.0 °F 38% 30.17 in 10.0 mi Calm Calm - N/A   Clear
10:53 PM 39.0 °F 34.8 °F 18.0 °F 43% 30.15 in 10.0 mi NE 5.8 mph - N/A   Clear
11:53 PM 37.9 °F - 17.1 °F 43% 30.12 in 10.0 mi Calm Calm - N/A   Clear